GW2722 Weather Reports


time (UTC)temp
C
wind
direction
speed
KPH
gust
KPH
rain 1hr
cm
rain 24hr
cm
rain mn
cm
humidity
%
barometer
mb
20260505163107 17 355 14.5 22.5 0.00 0.51 0.51 75 1009.6
20260505161616 17 325 6.4 17.7 0.00 0.51 0.51 77 1009.6
20260505153110 16 5 4.8 14.5 0.00 0.51 0.51 82 1009.6
20260505151558 16 331 6.4 12.9 0.00 0.51 0.51 83 1009.6
20260505130113 13 312 3.2 14.5 0.03 0.48 0.48 91 1008.8
20260505124605 13 293 6.4 14.5 0.03 0.48 0.48 93 1009.0
20260505123101 13 325 6.4 16.1 0.03 0.48 0.48 94 1009.2
20260505121559 13 285 1.6 9.7 0.05 0.48 0.48 95 1008.8
20260505120116 13 0 0.0 8.0 0.05 0.46 0.46 95 1009.1
20260505114601 13 0 4.8 9.7 0.08 0.46 0.46 95 1009.5
20260505113105 13 360 3.2 9.7 0.10 0.46 0.46 96 1009.3
20260505111558 13 331 4.8 11.3 0.10 0.43 0.43 96 1009.2
20260505110116 13 308 3.2 14.5 0.13 0.41 0.41 95 1009.1
20260505101603 13 0 0.0 3.2 0.20 0.33 0.33 94 1009.5
20260505100059 13 296 0.0 3.2 0.23 0.28 0.28 93 1009.9
20260505094600 13 132 0.0 8.0 0.25 0.25 0.25 93 1010.2
20260505093108 13 147 0.0 11.3 0.20 0.20 0.20 91 1010.4
20260505091600 14 0 0.0 9.7 0.13 0.13 0.13 87 1010.3
20260505090057 16 76 4.8 24.1 0.05 0.05 0.05 77 1009.9
20260505084559 18 85 3.2 19.3 0.00 0.00 0.00 59 1008.9
20260505083058 18 38 6.4 27.4 0.00 0.00 0.00 59 1007.8
20260505081618 18 33 9.7 22.5 0.00 0.00 0.00 58 1007.3
20260505080109 18 350 8.0 29.0 0.00 0.00 0.00 58 1006.8
20260505074557 18 355 16.1 27.4 0.00 0.00 0.00 58 1006.7
20260505073058 18 338 12.9 32.2 0.00 0.00 0.00 58 1006.9
20260505071624 18 352 11.3 29.0 0.00 0.00 0.00 58 1006.8
20260505070111 18 337 11.3 19.3 0.00 0.00 0.00 58 1006.7
20260505064609 18 5 14.5 22.5 0.00 0.00 0.00 58 1006.8
20260505063058 18 335 14.5 24.1 0.00 0.00 0.00 58 1006.9
20260505061602 18 360 11.3 19.3 0.00 0.00 0.00 58 1007.0
20260505060059 18 352 11.3 29.0 0.00 0.00 0.00 57 1007.1
20260505054558 18 348 9.7 20.9 0.00 0.00 0.00 57 1006.9
20260505053106 18 347 12.9 22.5 0.00 0.00 0.00 57 1006.7
20260505051559 19 335 11.3 19.3 0.00 0.00 0.00 56 1006.6
20260505041557 20 329 11.3 25.7 0.00 0.00 0.00 55 1006.8
20260505040106 20 355 11.3 19.3 0.00 0.00 0.00 55 1007.0
20260505034601 20 15 12.9 25.7 0.00 0.00 0.00 56 1007.1
20260505033101 20 350 9.7 20.9 0.00 0.00 0.00 56 1007.3
20260505031601 19 345 11.3 19.3 0.00 0.00 0.00 57 1007.2
20260505030103 19 5 6.4 14.5 0.00 0.00 0.00 58 1007.0
20260505024558 19 333 8.0 14.5 0.00 0.00 0.00 58 1006.8
20260505023108 19 12 4.8 14.5 0.00 0.00 0.00 58 1006.7
20260505021602 20 352 6.4 16.1 0.00 0.00 0.00 56 1006.6
20260505014600 20 360 6.4 17.7 0.00 0.00 0.00 55 1005.9
20260505013059 20 355 6.4 14.5 0.00 0.00 0.00 54 1005.6
20260505011557 20 360 4.8 14.5 0.00 0.00 0.00 54 1005.5
20260505010105 21 315 6.4 12.9 0.00 0.00 0.00 53 1005.6
20260505004557 21 5 4.8 12.9 0.00 0.00 0.00 52 1005.7
20260505003105 21 44 4.8 14.5 0.00 0.00 0.00 51 1005.7
20260505001559 22 5 6.4 16.1 0.00 0.00 0.00 49 1005.7
20260505000111 22 344 11.3 22.5 0.00 0.00 0.00 48 1005.8
20260504234558 22 13 14.5 27.4 0.00 0.00 0.00 46 1006.2
20260504233106 22 360 11.3 27.4 0.00 0.00 0.00 47 1006.4
20260504231559 23 332 11.3 25.7 0.00 0.00 0.00 48 1006.5
20260504230059 23 325 9.7 22.5 0.00 0.00 0.00 50 1006.8
20260504224602 23 29 12.9 27.4 0.00 0.00 0.00 48 1006.8
20260504223059 23 360 12.9 32.2 0.00 0.00 0.00 48 1006.9
20260504221558 23 360 14.5 29.0 0.00 0.00 0.00 47 1007.1
20260504220118 23 346 19.3 35.4 0.00 0.00 0.00 45 1007.1
20260504214559 23 338 19.3 41.8 0.00 0.00 0.00 43 1007.1
20260504213101 23 34 11.3 35.4 0.00 0.00 0.00 42 1007.1
20260504211603 23 100 14.5 38.6 0.00 0.00 0.00 40 1007.1
20260504210058 23 350 16.1 32.2 0.00 0.00 0.00 44 1007.4
20260504204556 23 24 14.5 25.7 0.00 0.00 0.00 47 1007.3
20260504203058 23 304 9.7 27.4 0.00 0.00 0.00 48 1007.5
20260504201559 23 355 14.5 20.9 0.00 0.00 0.00 46 1007.7
20260504200100 23 341 14.5 24.1 0.00 0.00 0.00 49 1007.8
20260504194559 23 335 4.8 12.9 0.00 0.00 0.00 51 1008.0
20260504193100 22 355 6.4 14.5 0.00 0.00 0.00 52 1008.3
20260504191601 22 71 4.8 17.7 0.00 0.00 0.00 52 1008.7
20260504190111 22 24 16.1 29.0 0.00 0.00 0.00 52 1008.9
20260504184614 22 46 4.8 16.1 0.00 0.00 0.00 57 1009.1
20260504183101 22 355 11.3 25.7 0.00 0.00 0.00 56 1009.0
20260504181559 21 336 6.4 17.7 0.00 0.00 0.00 60 1009.0
20260504180058 20 43 9.7 19.3 0.00 0.00 0.00 61 1009.0
20260504174609 20 339 6.4 22.5 0.00 0.00 0.00 63 1009.0
20260504173106 19 23 12.9 27.4 0.00 0.00 0.00 62 1009.0
20260504171557 19 334 14.5 32.2 0.00 0.00 0.00 62 1009.1
20260504170109 19 334 12.9 38.6 0.00 0.00 0.00 62 1009.0